Find Starlink 31341

NORAD ID: 59155 Int'l Des: 2024-044 Owner: SPXS Country: US Constellation: starlink operational
LEOCIRCULAR

Live Position

Loading 3D Globe...

About Starlink 31341

Description loading...

Upcoming Passes

Passes for default location (London). Set your location on the main map for personalized predictions.

Altitude History

Loading altitude history...

Two-Line Element Set

1 59155U 24044D 26121.20238554 .00001979 00000-0 81401-4 0 9994
2 59155 43.0013 174.1769 0001228 272.3916 87.6795 15.27586878121559
Epoch: May 1, 2026 • Age: 9 hours

Current Status

Altitude 482.4 km
Velocity 7.63 km/s
Sub-Earth Point 7.53°N, 77.03°W
Launch Date Mar 4, 2024
Age 2.1 years
Type internet

Technical Details

Classification Payload
Mass 730.00 kg
Dry Mass 700.00 kg
Total Mass 730.00 kg
Length 0.30 m
Diameter 4.10 m
Span 29.00 m
Shape Box + pan
Manufacturer SPXS
Bus Type Starlink V2M
Phase Status In Orbit
Owner/State SPXS/US

Most Searched